Change the Weather History Date:

Tuesday, December 24, 2013

  Actual Average Record
Temperature  
Mean Temperature 37 °F -  
Max Temperature 41 °F 37 °F 47 °F (1984)
Min Temperature 33 °F 30 °F 14 °F (1952)
Degree Days  
Heating Degree Days 28    
Moisture  
Dew Point 36 °F    
Average Humidity 88    
Maximum Humidity 93    
Minimum Humidity 80    
Precipitation  
Precipitation 0.00 in - - ()
Sea Level Pressure  
Sea Level Pressure 28.94 in    
Wind  
Wind Speed - (North)    
Max Wind Speed -    
Max Gust Speed -    
Visibility 9 miles    
Events      
Averages and records for this station are not official NWS values.
T = Trace of Precipitation, MM = Missing Value Source: NWS Daily Summary

Daily Weather History Graph

Daily Weather History Graph

Search for Another Location

Airport or City:

Trip Planner

Search our weather history database for the weather conditions in past years. The results will help you decide how hot, cold, wet, or windy it might be!

Date:

Astronomy

Dec. 24, 2013 Rise Set
Actual Time 9:53 AM HAST 5:39 PM HAST
Civil Twilight 9:12 AM HAST 6:20 PM HAST
Nautical Twilight 8:28 AM HAST 7:04 PM HAST
Astronomical Twilight 7:47 AM HAST 7:45 PM HAST
Moon 12:48 AM HAST (12/24) 1:05 PM HAST (12/24)
Length of Visible Light 9h 08m
Length of Day
7h 46m
Waning Gibbous, 57% of the Moon is Illuminated
Dec 24
Waning Gibbous
Dec 25
Last Quarter
Jan 1
New
Jan 7
First Quarter
Jan 15
Full

Hourly Weather History & Observations

Time (HAST) Temp. Dew Point Humidity Pressure Visibility Wind Dir Wind Speed Gust Speed Precip Events Conditions
12:16 AM 33.8 °F 30.2 °F 87% 28.98 in 5.0 mi North - - N/A   Clear
12:36 AM 32.0 °F 28.4 °F 87% 28.98 in 2.0 mi North - - N/A   Scattered Clouds
12:56 AM 32.0 °F 30.2 °F 93% 28.98 in 7.0 mi North - - N/A   Partly Cloudy
1:16 AM 32.0 °F 30.2 °F 93% 28.97 in 8.0 mi North - - N/A   Mostly Cloudy
1:36 AM 33.8 °F 30.2 °F 87% 28.96 in 8.0 mi North - - N/A   Scattered Clouds
1:56 AM 33.8 °F 30.2 °F 87% 28.96 in 8.0 mi North - - N/A   Mostly Cloudy
2:16 AM 33.8 °F 32.0 °F 93% 28.96 in 8.0 mi North - - N/A   Overcast
2:36 AM 35.6 °F 33.8 °F 93% 28.95 in 10.0 mi North - - N/A   Overcast
2:56 AM 35.6 °F 33.8 °F 93% 28.95 in 8.0 mi North - - N/A   Overcast
3:16 AM 37.4 °F 35.6 °F 93% 28.95 in 10.0 mi North - - N/A   Overcast
3:36 AM 39.2 °F 37.4 °F 93% 28.94 in 10.0 mi North - - N/A   Overcast
3:56 AM 39.2 °F 37.4 °F 93% 28.94 in 10.0 mi North - - N/A   Overcast
4:16 AM 39.2 °F 37.4 °F 93% 28.93 in 10.0 mi North - - N/A   Overcast
4:36 AM 39.2 °F 35.6 °F 87% 28.94 in 10.0 mi North - - N/A   Overcast
4:56 AM 39.2 °F 35.6 °F 87% 28.93 in 10.0 mi North - - N/A   Overcast
5:16 AM 39.2 °F 35.6 °F 87% 28.93 in 10.0 mi North - - N/A   Overcast
5:36 AM 37.4 °F 35.6 °F 93% 28.92 in 10.0 mi North - - N/A   Overcast
5:56 AM 37.4 °F 35.6 °F 93% 28.92 in 10.0 mi North - - N/A   Overcast
6:16 AM 39.2 °F 35.6 °F 87% 28.92 in 10.0 mi North - - N/A   Overcast
6:36 AM 39.2 °F 35.6 °F 87% 28.92 in 10.0 mi North - - N/A   Overcast
6:56 AM 39.2 °F 35.6 °F 87% 28.92 in 7.0 mi North - - N/A   Overcast
7:16 AM 39.2 °F 35.6 °F 87% 28.92 in 8.0 mi North - - N/A   Overcast
7:36 AM 39.2 °F 35.6 °F 87% 28.92 in 10.0 mi North - - N/A   Overcast
7:56 AM 39.2 °F 37.4 °F 93% 28.92 in 8.0 mi North - - N/A   Mostly Cloudy
8:16 AM 39.2 °F 37.4 °F 93% 28.92 in 10.0 mi North - - N/A   Overcast
8:36 AM 39.2 °F 37.4 °F 93% 28.92 in 10.0 mi North - - N/A   Overcast
8:56 AM 39.2 °F 37.4 °F 93% 28.92 in 10.0 mi North - - N/A   Overcast
9:16 AM 39.2 °F 37.4 °F 93% 28.92 in 10.0 mi North - - N/A   Overcast
9:36 AM 39.2 °F 37.4 °F 93% 28.92 in 10.0 mi North - - N/A   Overcast
9:56 AM 39.2 °F 35.6 °F 87% 28.92 in 10.0 mi North - - N/A   Overcast
10:16 AM 39.2 °F 35.6 °F 87% 28.92 in 10.0 mi North - - N/A   Overcast
10:36 AM 39.2 °F 35.6 °F 87% 28.93 in 10.0 mi North - - N/A   Overcast
10:56 AM 39.2 °F 35.6 °F 87% 28.93 in 10.0 mi North - - N/A   Overcast
11:16 AM 39.2 °F 35.6 °F 87% 28.93 in 10.0 mi North - - N/A   Overcast
11:36 AM 41.0 °F 37.4 °F 87% 28.93 in 10.0 mi North - - N/A   Overcast
11:56 AM 41.0 °F 37.4 °F 87% 28.93 in 10.0 mi North - - N/A   Mostly Cloudy
12:16 PM 41.0 °F 37.4 °F 87% 28.92 in 10.0 mi North - - N/A   Mostly Cloudy
12:36 PM 41.0 °F 37.4 °F 87% 28.92 in 10.0 mi North - - N/A   Mostly Cloudy
12:56 PM 41.0 °F 37.4 °F 87% 28.92 in 10.0 mi North - - N/A   Overcast
1:16 PM 41.0 °F 37.4 °F 87% 28.92 in 10.0 mi North - - N/A   Overcast
1:36 PM 41.0 °F 37.4 °F 87% 28.92 in 10.0 mi North - - N/A   Overcast
1:56 PM 41.0 °F 37.4 °F 87% 28.92 in 10.0 mi North - - N/A   Overcast
2:16 PM 41.0 °F 37.4 °F 87% 28.91 in 10.0 mi North - - N/A   Mostly Cloudy
2:36 PM 41.0 °F 37.4 °F 87% 28.91 in 10.0 mi North - - N/A   Mostly Cloudy
2:56 PM 41.0 °F 37.4 °F 87% 28.91 in 10.0 mi North - - N/A   Overcast
3:16 PM 41.0 °F 37.4 °F 87% 28.91 in 10.0 mi North - - N/A   Overcast
3:36 PM 41.0 °F 35.6 °F 81% 28.92 in 10.0 mi North - - N/A   Overcast
3:56 PM 41.0 °F 37.4 °F 87% 28.91 in 10.0 mi North - - N/A   Overcast
4:16 PM 41.0 °F 37.4 °F 87% 28.91 in 10.0 mi North - - N/A   Overcast
4:36 PM 41.0 °F 37.4 °F 87% 28.92 in 7.0 mi North - - N/A   Overcast
4:56 PM 39.2 °F 37.4 °F 93% 28.92 in 5.0 mi North - - N/A   Overcast
5:16 PM 41.0 °F 37.4 °F 87% 28.92 in 2.5 mi North - - N/A   Overcast
5:36 PM 41.0 °F 37.4 °F 87% 28.93 in 3.0 mi North - - N/A   Overcast
5:56 PM 41.0 °F 37.4 °F 87% 28.93 in 4.0 mi North - - N/A   Overcast
6:16 PM 39.2 °F 37.4 °F 93% 28.93 in 10.0 mi North - - N/A   Overcast
6:36 PM 41.0 °F 37.4 °F 87% 28.94 in 6.0 mi North - - N/A   Overcast
6:56 PM 41.0 °F 37.4 °F 87% 28.94 in 10.0 mi North - - N/A   Overcast
7:16 PM 41.0 °F 37.4 °F 87% 28.94 in 8.0 mi North - - N/A   Overcast
7:36 PM 41.0 °F 37.4 °F 87% 28.95 in 10.0 mi North - - N/A   Overcast
7:56 PM 41.0 °F 37.4 °F 87% 28.95 in 10.0 mi North - - N/A   Overcast
8:16 PM 41.0 °F 37.4 °F 87% 28.96 in 7.0 mi North - - N/A   Overcast
8:36 PM 41.0 °F 37.4 °F 87% 28.96 in 10.0 mi North - - N/A   Overcast
8:56 PM 41.0 °F 37.4 °F 87% 28.96 in 10.0 mi North - - N/A   Overcast
9:16 PM 41.0 °F 37.4 °F 87% 28.97 in 10.0 mi North - - N/A   Overcast
9:36 PM 41.0 °F 37.4 °F 87% 28.98 in 9.0 mi North - - N/A   Overcast
9:56 PM 41.0 °F 37.4 °F 87% 28.98 in 9.0 mi North - - N/A   Overcast
10:16 PM 41.0 °F 37.4 °F 87% 28.98 in 10.0 mi North - - N/A   Overcast
10:36 PM 41.0 °F 37.4 °F 87% 28.99 in 8.0 mi North - - N/A   Overcast
10:56 PM 41.0 °F 37.4 °F 87% 29.00 in 5.0 mi North - - N/A   Overcast
11:16 PM 41.0 °F 37.4 °F 87% 29.00 in 3.0 mi North - - N/A   Overcast
11:36 PM 41.0 °F 37.4 °F 87% 29.01 in 1.2 mi North - - N/A   Overcast
11:56 PM 41.0 °F 37.4 °F 87% 29.02 in 1.5 mi North - - N/A   Overcast